﻿"﻿最低氣溫 (攝氏度) - �����ھ���"
"Minimum Temperature (°C) - Hong Kong International Airport"
年/Year,月/Month,日/Day,數值/Value,"數據完整性/data Completeness"
1997,6,1,***,#
1997,6,2,***,#
1997,6,3,29.0,#
1997,6,4,29.3,#
1997,6,5,***,#
1997,6,6,29.4,#
1997,6,7,29.0,#
1997,6,8,***,#
1997,6,9,***,#
1997,6,10,25.9,#
1997,6,11,26.2,#
1997,6,12,25.7,#
1997,6,13,23.8,#
1997,6,14,25.1,#
1997,6,15,24.3,C
1997,6,16,23.8,#
1997,6,17,23.2,#
1997,6,18,23.8,#
1997,6,19,25.4,#
1997,6,20,27.4,#
1997,6,21,24.9,#
1997,6,22,25.6,C
1997,6,23,26.2,#
1997,6,24,26.7,#
1997,6,25,***,#
1997,6,26,***,#
1997,6,27,***,#
1997,6,28,***,#
1997,6,29,***,#
1997,6,30,***,#
1997,7,1,***,#
1997,7,2,***,#
1997,7,3,22.8,#
1997,7,4,23.5,#
1997,7,5,28.5,#
1997,7,6,24.8,C
1997,7,7,26.9,#
1997,7,8,24.8,#
1997,7,9,26.3,C
1997,7,10,26.3,C
1997,7,11,26.9,#
1997,7,12,27.7,#
1997,7,13,27.5,C
1997,7,14,26.5,#
1997,7,15,25.0,#
1997,7,16,26.5,#
1997,7,17,25.6,#
1997,7,18,25.8,C
1997,7,19,24.5,#
1997,7,20,25.8,C
1997,7,21,26.7,#
1997,7,22,26.7,#
1997,7,23,25.1,C
1997,7,24,26.1,#
1997,7,25,27.3,C
1997,7,26,27.8,C
1997,7,27,27.2,C
1997,7,28,27.0,#
1997,7,29,27.8,#
1997,7,30,***,#
1997,7,31,***,#
1997,8,1,25.8,#
1997,8,2,24.5,C
1997,8,3,25.0,#
1997,8,4,27.1,#
1997,8,5,27.7,#
1997,8,6,28.6,#
1997,8,7,24.2,#
1997,8,8,23.7,#
1997,8,9,26.8,#
1997,8,10,29.1,#
1997,8,11,27.6,#
1997,8,12,***,#
1997,8,13,27.0,#
1997,8,14,***,#
1997,8,15,27.6,#
1997,8,16,27.2,#
1997,8,17,***,#
1997,8,18,***,#
1997,8,19,33.3,#
1997,8,20,27.8,#
1997,8,21,25.6,C
1997,8,22,25.4,#
1997,8,23,25.2,#
1997,8,24,25.2,C
1997,8,25,26.2,#
1997,8,26,25.4,#
1997,8,27,25.5,#
1997,8,28,26.8,#
1997,8,29,30.6,#
1997,8,30,29.8,C
1997,8,31,28.9,#
1997,9,1,28.6,#
1997,9,2,27.4,C
1997,9,3,25.4,#
1997,9,4,25.9,#
1997,9,5,26.5,#
1997,9,6,27.2,#
1997,9,7,24.9,#
1997,9,8,24.6,#
1997,9,9,24.9,#
1997,9,10,25.7,#
1997,9,11,29.4,#
1997,9,12,27.0,#
1997,9,13,25.7,#
1997,9,14,24.0,#
1997,9,15,26.0,#
1997,9,16,25.6,#
1997,9,17,25.2,#
1997,9,18,25.9,#
1997,9,19,27.1,#
1997,9,20,23.3,#
1997,9,21,18.6,C
1997,9,22,20.3,#
1997,9,23,25.0,C
1997,9,24,25.6,#
1997,9,25,25.4,#
1997,9,26,23.5,#
1997,9,27,21.8,#
1997,9,28,***,#
1997,9,29,20.4,#
1997,9,30,21.9,#
1997,10,1,***,#
1997,10,2,26.3,#
1997,10,3,25.6,#
1997,10,4,25.8,#
1997,10,5,25.1,#
1997,10,6,24.8,#
1997,10,7,24.5,#
1997,10,8,25.6,#
1997,10,9,25.1,#
1997,10,10,24.1,#
1997,10,11,25.1,#
1997,10,12,26.3,#
1997,10,13,25.8,#
1997,10,14,23.8,#
1997,10,15,24.3,#
1997,10,16,25.7,#
1997,10,17,25.2,#
1997,10,18,24.6,#
1997,10,19,25.2,C
1997,10,20,25.4,#
1997,10,21,25.2,C
1997,10,22,25.0,C
1997,10,23,25.3,#
1997,10,24,25.7,#
1997,10,25,25.5,#
1997,10,26,24.6,#
1997,10,27,19.5,#
1997,10,28,18.1,#
1997,10,29,***,#
1997,10,30,22.3,#
1997,10,31,19.6,C
1997,11,1,18.3,#
1997,11,2,***,#
1997,11,3,***,#
1997,11,4,***,#
1997,11,5,18.7,#
1997,11,6,17.3,#
1997,11,7,***,#
1997,11,8,***,#
1997,11,9,***,#
1997,11,10,25.8,#
1997,11,11,23.5,#
1997,11,12,24.2,#
1997,11,13,***,#
1997,11,14,23.8,#
1997,11,15,23.5,#
1997,11,16,18.0,#
1997,11,17,15.8,#
1997,11,18,14.2,#
1997,11,19,18.5,#
1997,11,20,20.6,#
1997,11,21,21.4,#
1997,11,22,20.6,#
1997,11,23,21.8,#
1997,11,24,22.3,#
1997,11,25,25.0,#
1997,11,26,24.3,#
1997,11,27,25.2,#
1997,11,28,24.2,C
1997,11,29,20.0,#
1997,11,30,18.8,#
1997,12,1,16.7,#
1997,12,2,14.1,#
1997,12,3,13.9,C
1997,12,4,13.9,#
1997,12,5,19.6,#
1997,12,6,23.7,#
1997,12,7,***,#
1997,12,8,12.6,#
1997,12,9,11.7,C
1997,12,10,11.6,#
1997,12,11,12.0,C
1997,12,12,12.8,#
1997,12,13,12.2,C
1997,12,14,12.9,#
1997,12,15,14.6,#
1997,12,16,18.5,C
1997,12,17,17.3,#
1997,12,18,18.2,#
1997,12,19,20.0,#
1997,12,20,18.5,#
1997,12,21,21.0,#
1997,12,22,15.4,#
1997,12,23,13.5,C
1997,12,24,12.3,#
1997,12,25,17.5,C
1997,12,26,17.0,#
1997,12,27,16.4,C
1997,12,28,19.2,#
1997,12,29,18.9,#
1997,12,30,17.6,#
1997,12,31,19.3,#
1998,1,1,***,#
1998,1,2,20.2,#
1998,1,3,19.8,#
1998,1,4,16.3,#
1998,1,5,13.8,#
1998,1,6,16.3,#
1998,1,7,18.3,#
1998,1,8,18.6,#
1998,1,9,20.5,#
1998,1,10,20.2,#
1998,1,11,18.3,#
1998,1,12,15.4,#
1998,1,13,19.0,#
1998,1,14,16.3,#
1998,1,15,11.7,#
1998,1,16,12.0,#
1998,1,17,12.2,#
1998,1,18,8.7,#
1998,1,19,9.4,#
1998,1,20,9.8,#
1998,1,21,9.9,C
1998,1,22,12.7,#
1998,1,23,10.4,#
1998,1,24,7.7,#
1998,1,25,9.7,#
1998,1,26,9.4,#
1998,1,27,11.6,#
1998,1,28,11.9,#
1998,1,29,11.5,C
1998,1,30,14.4,#
1998,1,31,15.5,#
1998,2,1,17.1,#
1998,2,2,16.9,#
1998,2,3,15.5,#
1998,2,4,9.3,#
1998,2,5,8.2,#
1998,2,6,7.7,C
1998,2,7,8.8,#
1998,2,8,10.4,C
1998,2,9,15.8,#
1998,2,10,16.5,#
1998,2,11,16.7,#
1998,2,12,19.4,#
1998,2,13,20.0,C
1998,2,14,17.2,#
1998,2,15,17.7,#
1998,2,16,17.7,#
1998,2,17,18.8,#
1998,2,18,18.2,C
1998,2,19,18.1,C
1998,2,20,19.1,#
1998,2,21,14.5,#
1998,2,22,12.8,#
1998,2,23,12.8,#
1998,2,24,13.1,#
1998,2,25,13.3,C
1998,2,26,14.1,#
1998,2,27,13.8,#
1998,2,28,13.8,#
1998,3,1,14.6,C
1998,3,2,15.2,#
1998,3,3,16.6,C
1998,3,4,17.3,#
1998,3,5,16.8,#
1998,3,6,16.9,#
1998,3,7,18.7,#
1998,3,8,19.4,#
1998,3,9,24.1,#
1998,3,10,12.3,#
1998,3,11,11.8,#
1998,3,12,11.7,#
1998,3,13,12.7,C
1998,3,14,17.7,C
1998,3,15,17.2,#
1998,3,16,17.5,#
1998,3,17,18.4,C
1998,3,18,17.6,C
1998,3,19,21.0,C
1998,3,20,22.9,C
1998,3,21,11.8,#
1998,3,22,11.1,#
1998,3,23,16.4,#
1998,3,24,16.0,C
1998,3,25,18.3,C
1998,3,26,20.4,#
1998,3,27,21.1,C
1998,3,28,21.3,#
1998,3,29,21.8,#
1998,3,30,21.2,#
1998,3,31,21.5,C
1998,4,1,21.4,C
1998,4,2,21.3,#
1998,4,3,19.8,C
1998,4,4,20.3,C
1998,4,5,22.0,#
1998,4,6,22.9,C
1998,4,7,21.4,#
1998,4,8,22.5,#
1998,4,9,25.1,#
1998,4,10,24.6,C
1998,4,11,25.1,C
1998,4,12,20.6,C
1998,4,13,22.7,C
1998,4,14,21.6,#
1998,4,15,21.2,C
1998,4,16,20.6,#
1998,4,17,21.0,C
1998,4,18,22.8,C
1998,4,19,22.1,C
1998,4,20,21.4,C
1998,4,21,23.1,C
1998,4,22,24.8,C
1998,4,23,26.8,C
1998,4,24,26.5,#
1998,4,25,25.9,C
1998,4,26,23.1,#
1998,4,27,21.5,C
1998,4,28,23.7,#
1998,4,29,23.4,C
1998,4,30,25.2,C
1998,5,1,26.8,#
1998,5,2,21.9,C
1998,5,3,23.4,C
1998,5,4,24.4,C
1998,5,5,25.0,C
1998,5,6,24.3,#
1998,5,7,25.2,C
1998,5,8,26.3,#
1998,5,9,26.8,C
1998,5,10,27.1,C
1998,5,11,27.5,C
1998,5,12,26.4,#
1998,5,13,27.2,#
1998,5,14,27.1,#
1998,5,15,24.6,C
1998,5,16,25.8,C
1998,5,17,25.3,C
1998,5,18,26.0,#
1998,5,19,26.2,C
1998,5,20,25.9,C
1998,5,21,25.4,#
1998,5,22,25.8,C
1998,5,23,27.2,C
1998,5,24,21.0,C
1998,5,25,20.3,C
1998,5,26,20.8,#
1998,5,27,23.3,#
1998,5,28,23.5,C
1998,5,29,25.6,C
1998,5,30,24.8,C
1998,5,31,24.7,C
1998,6,1,27.1,#
1998,6,2,28.3,C
1998,6,3,27.1,C
1998,6,4,24.5,C
1998,6,5,24.6,C
1998,6,6,22.1,C
1998,6,7,22.1,C
1998,6,8,23.9,C
1998,6,9,23.2,#
1998,6,10,25.3,C
1998,6,11,24.8,C
1998,6,12,28.2,C
1998,6,13,28.7,#
1998,6,14,28.0,C
1998,6,15,29.1,#
1998,6,16,28.1,C
1998,6,17,29.2,C
1998,6,18,29.5,#
1998,6,19,25.0,C
1998,6,20,27.6,C
1998,6,21,29.3,C
1998,6,22,28.5,#
1998,6,23,25.0,C
1998,6,24,27.0,C
1998,6,25,28.7,C
1998,6,26,26.0,C
1998,6,27,24.8,C
1998,6,28,26.5,C
1998,6,29,27.7,#
1998,6,30,27.4,#
1998,7,1,26.8,C
1998,7,2,24.1,#
1998,7,3,24.9,C
1998,7,4,24.1,C
1998,7,5,25.5,C
1998,7,6,24.5,#
1998,7,7,24.8,#
1998,7,8,26.3,C
1998,7,9,26.0,#
1998,7,10,26.4,C
1998,7,11,27.8,C
1998,7,12,28.2,C
1998,7,13,24.0,#
1998,7,14,26.7,#
1998,7,15,27.5,#
1998,7,16,28.5,#
1998,7,17,28.8,C
1998,7,18,29.1,C
1998,7,19,29.2,C
1998,7,20,29.1,C
1998,7,21,29.5,#
1998,7,22,28.3,C
1998,7,23,29.4,#
1998,7,24,29.7,C
1998,7,25,29.6,C
1998,7,26,28.8,C
1998,7,27,29.0,#
1998,7,28,29.2,#
1998,7,29,29.3,#
1998,7,30,27.5,#
1998,7,31,29.1,#
1998,8,1,29.1,C
1998,8,2,27.4,C
1998,8,3,29.5,#
1998,8,4,28.6,C
1998,8,5,29.4,C
1998,8,6,26.9,#
1998,8,7,25.2,C
1998,8,8,27.3,C
1998,8,9,27.0,C
1998,8,10,26.3,#
1998,8,11,24.9,C
1998,8,12,26.8,C
1998,8,13,27.8,#
1998,8,14,26.8,#
1998,8,15,27.6,#
1998,8,16,27.6,C
1998,8,17,26.7,C
1998,8,18,28.5,C
1998,8,19,27.6,C
1998,8,20,27.6,#
1998,8,21,28.9,C
1998,8,22,27.2,C
1998,8,23,27.6,#
1998,8,24,27.5,#
1998,8,25,28.3,C
1998,8,26,28.2,#
1998,8,27,26.2,C
1998,8,28,25.3,C
1998,8,29,27.5,C
1998,8,30,25.7,C
1998,8,31,25.1,#
1998,9,1,25.8,#
1998,9,2,26.9,C
1998,9,3,27.1,#
1998,9,4,26.6,#
1998,9,5,26.2,C
1998,9,6,24.4,C
1998,9,7,26.0,#
1998,9,8,26.6,#
1998,9,9,26.6,C
1998,9,10,25.9,#
1998,9,11,25.8,C
1998,9,12,25.7,C
1998,9,13,25.8,C
1998,9,14,26.2,C
1998,9,15,27.6,#
1998,9,16,27.4,C
1998,9,17,27.7,#
1998,9,18,27.2,#
1998,9,19,25.6,C
1998,9,20,24.6,C
1998,9,21,25.5,#
1998,9,22,24.9,C
1998,9,23,26.0,#
1998,9,24,26.8,#
1998,9,25,26.6,C
1998,9,26,26.5,#
1998,9,27,26.7,C
1998,9,28,25.6,C
1998,9,29,24.8,C
1998,9,30,24.0,C
1998,10,1,24.7,#
1998,10,2,25.1,#
1998,10,3,25.5,C
1998,10,4,25.3,C
1998,10,5,25.4,C
1998,10,6,26.1,#
1998,10,7,26.0,C
1998,10,8,25.4,C
1998,10,9,24.4,C
1998,10,10,24.9,C
1998,10,11,26.2,C
1998,10,12,26.2,C
1998,10,13,25.2,#
1998,10,14,26.1,#
1998,10,15,24.0,#
1998,10,16,25.1,C
1998,10,17,23.1,#
1998,10,18,20.9,#
1998,10,19,24.2,#
1998,10,20,24.6,#
1998,10,21,22.9,C
1998,10,22,22.8,#
1998,10,23,22.1,#
1998,10,24,23.9,C
1998,10,25,22.6,C
1998,10,26,22.1,#
1998,10,27,21.9,C
1998,10,28,22.6,C
1998,10,29,22.1,C
1998,10,30,23.0,#
1998,10,31,23.3,C
1998,11,1,24.5,C
1998,11,2,21.4,C
1998,11,3,20.2,C
1998,11,4,20.6,#
1998,11,5,23.8,C
1998,11,6,21.9,#
1998,11,7,22.8,#
1998,11,8,20.6,#
1998,11,9,19.1,#
1998,11,10,20.1,C
1998,11,11,20.8,#
1998,11,12,18.9,C
1998,11,13,20.6,#
1998,11,14,20.6,C
1998,11,15,24.0,#
1998,11,16,24.9,#
1998,11,17,23.1,#
1998,11,18,21.9,#
1998,11,19,20.5,#
1998,11,20,20.1,#
1998,11,21,20.9,#
1998,11,22,19.1,#
1998,11,23,19.1,#
1998,11,24,18.4,#
1998,11,25,20.6,C
1998,11,26,17.8,C
1998,11,27,19.5,#
1998,11,28,18.6,C
1998,11,29,21.2,#
1998,11,30,21.9,#
1998,12,1,23.0,C
1998,12,2,22.5,#
1998,12,3,14.3,C
1998,12,4,13.3,C
1998,12,5,15.3,C
1998,12,6,16.7,C
1998,12,7,14.7,#
1998,12,8,14.7,#
1998,12,9,13.7,#
1998,12,10,14.0,C
1998,12,11,14.0,C
1998,12,12,13.7,C
1998,12,13,15.4,#
1998,12,14,13.2,C
1998,12,15,15.2,#
1998,12,16,15.0,#
1998,12,17,14.5,#
1998,12,18,18.3,#
1998,12,19,17.0,C
1998,12,20,19.0,C
1998,12,21,19.2,C
1998,12,22,18.2,#
1998,12,23,17.9,#
1998,12,24,18.0,#
1998,12,25,16.2,#
1998,12,26,15.6,#
1998,12,27,15.2,#
1998,12,28,17.5,#
1998,12,29,17.4,C
1998,12,30,17.4,C
1998,12,31,17.5,#
1999,1,1,17.2,#
1999,1,2,14.1,C
1999,1,3,13.1,C
1999,1,4,13.2,#
1999,1,5,13.3,#
1999,1,6,12.8,#
1999,1,7,13.8,#
1999,1,8,12.1,#
1999,1,9,14.8,#
1999,1,10,13.9,C
1999,1,11,13.8,#
1999,1,12,8.5,#
1999,1,13,8.3,C
1999,1,14,9.9,C
1999,1,15,8.3,C
1999,1,16,9.3,C
1999,1,17,12.0,C
1999,1,18,12.3,#
1999,1,19,14.2,#
1999,1,20,16.0,C
1999,1,21,15.2,C
1999,1,22,16.6,#
1999,1,23,17.2,C
1999,1,24,18.2,C
1999,1,25,17.9,#
1999,1,26,18.1,C
1999,1,27,18.3,#
1999,1,28,18.3,#
1999,1,29,18.6,C
1999,1,30,17.7,C
1999,1,31,18.6,#
1999,2,1,20.5,#
1999,2,2,17.1,#
1999,2,3,13.5,C
1999,2,4,11.7,#
1999,2,5,12.7,#
1999,2,6,13.9,#
1999,2,7,15.0,C
1999,2,8,16.2,#
1999,2,9,17.0,#
1999,2,10,18.7,#
1999,2,11,17.0,C
1999,2,12,16.5,#
1999,2,13,15.4,#
1999,2,14,15.8,#
1999,2,15,17.3,#
1999,2,16,17.1,#
1999,2,17,18.6,C
1999,2,18,18.5,#
1999,2,19,13.7,C
1999,2,20,12.0,#
1999,2,21,11.7,#
1999,2,22,12.9,C
1999,2,23,16.9,#
1999,2,24,15.9,#
1999,2,25,17.9,#
1999,2,26,20.9,#
1999,2,27,18.7,#
1999,2,28,17.5,C
1999,3,1,17.7,C
1999,3,2,18.7,C
1999,3,3,18.1,#
1999,3,4,20.0,C
1999,3,5,18.4,C
1999,3,6,18.7,#
1999,3,7,21.2,C
1999,3,8,19.5,C
1999,3,9,19.7,C
1999,3,10,14.9,#
1999,3,11,13.0,#
1999,3,12,13.0,C
1999,3,13,14.7,C
1999,3,14,15.9,C
1999,3,15,15.5,C
1999,3,16,14.7,#
1999,3,17,18.9,#
1999,3,18,23.3,#
1999,3,19,25.6,#
1999,3,20,23.4,C
1999,3,21,13.2,C
1999,3,22,11.4,#
1999,3,23,14.1,#
1999,3,24,18.4,#
1999,3,25,21.0,C
1999,3,26,24.6,#
1999,3,27,22.2,#
1999,3,28,19.5,#
1999,3,29,16.9,C
1999,3,30,15.2,#
1999,3,31,17.5,#
1999,4,1,20.7,#
1999,4,2,22.1,#
1999,4,3,20.0,C
1999,4,4,19.8,C
1999,4,5,18.6,C
1999,4,6,18.1,C
1999,4,7,21.1,#
1999,4,8,21.3,#
1999,4,9,23.1,C
1999,4,10,22.6,#
1999,4,11,22.9,#
1999,4,12,23.0,#
1999,4,13,23.0,C
1999,4,14,21.4,#
1999,4,15,21.4,#
1999,4,16,24.2,C
1999,4,17,25.8,C
1999,4,18,25.5,C
1999,4,19,23.8,C
1999,4,20,23.6,C
1999,4,21,22.6,C
1999,4,22,23.1,#
1999,4,23,24.3,#
1999,4,24,26.5,C
1999,4,25,26.7,C
1999,4,26,26.0,C
1999,4,27,23.9,#
1999,4,28,22.6,C
1999,4,29,19.5,C
1999,4,30,19.0,C
1999,5,1,20.7,#
1999,5,2,22.3,#
1999,5,3,23.4,#
1999,5,4,23.4,C
1999,5,5,20.4,C
1999,5,6,17.5,C
1999,5,7,18.2,C
1999,5,8,18.4,C
1999,5,9,18.1,C
1999,5,10,18.4,#
1999,5,11,20.2,C
1999,5,12,23.9,C
1999,5,13,22.9,C
1999,5,14,24.1,C
1999,5,15,24.9,#
1999,5,16,25.9,#
1999,5,17,27.2,#
1999,5,18,24.3,#
1999,5,19,23.7,C
1999,5,20,24.4,C
1999,5,21,24.7,C
1999,5,22,25.5,C
1999,5,23,25.9,#
1999,5,24,27.6,#
1999,5,25,27.1,#
1999,5,26,24.6,C
1999,5,27,22.3,#
1999,5,28,21.6,#
1999,5,29,21.3,#
1999,5,30,24.5,#
1999,5,31,25.4,#
1999,6,1,26.5,#
1999,6,2,26.0,#
1999,6,3,26.1,#
1999,6,4,27.4,#
1999,6,5,27.0,C
1999,6,6,27.5,#
1999,6,7,25.0,#
1999,6,8,26.1,C
1999,6,9,27.9,#
1999,6,10,26.4,C
1999,6,11,27.6,#
1999,6,12,27.8,C
1999,6,13,27.8,C
1999,6,14,28.1,C
1999,6,15,28.1,C
1999,6,16,27.8,C
1999,6,17,26.2,#
1999,6,18,27.6,C
1999,6,19,26.5,C
1999,6,20,25.8,C
1999,6,21,26.2,C
1999,6,22,25.3,#
1999,6,23,24.3,C
1999,6,24,28.4,#
1999,6,25,26.7,C
1999,6,26,27.0,C
1999,6,27,27.4,C
1999,6,28,28.1,#
1999,6,29,28.1,C
1999,6,30,27.4,C
1999,7,1,27.2,C
1999,7,2,27.3,C
1999,7,3,26.3,C
1999,7,4,25.6,C
1999,7,5,25.4,C
1999,7,6,25.4,C
1999,7,7,26.2,#
1999,7,8,25.2,#
1999,7,9,25.7,#
1999,7,10,28.5,#
1999,7,11,28.7,C
1999,7,12,28.8,#
1999,7,13,28.0,C
1999,7,14,28.6,#
1999,7,15,28.2,#
1999,7,16,26.6,C
1999,7,17,27.7,#
1999,7,18,28.5,C
1999,7,19,28.7,#
1999,7,20,29.0,C
1999,7,21,28.9,C
1999,7,22,28.6,#
1999,7,23,28.0,C
1999,7,24,28.1,C
1999,7,25,27.9,#
1999,7,26,26.5,#
1999,7,27,26.2,C
1999,7,28,27.0,#
1999,7,29,27.6,C
1999,7,30,28.5,#
1999,7,31,28.7,#
1999,8,1,27.5,C
1999,8,2,27.2,C
1999,8,3,27.3,#
1999,8,4,27.6,#
1999,8,5,25.2,#
1999,8,6,25.6,#
1999,8,7,28.7,C
1999,8,8,25.8,C
1999,8,9,26.7,#
1999,8,10,24.9,#
1999,8,11,25.3,C
1999,8,12,27.1,C
1999,8,13,26.1,C
1999,8,14,26.5,#
1999,8,15,27.3,#
1999,8,16,27.5,C
1999,8,17,27.5,C
1999,8,18,26.9,C
1999,8,19,26.3,#
1999,8,20,26.9,#
1999,8,21,26.0,#
1999,8,22,24.5,C
1999,8,23,23.8,#
1999,8,24,23.9,C
1999,8,25,24.4,C
1999,8,26,26.0,#
1999,8,27,26.9,#
1999,8,28,26.1,C
1999,8,29,26.5,C
1999,8,30,27.5,C
1999,8,31,26.9,C
1999,9,1,25.7,C
1999,9,2,26.7,C
1999,9,3,26.9,#
1999,9,4,27.9,C
1999,9,5,27.9,#
1999,9,6,27.4,C
1999,9,7,27.2,C
1999,9,8,26.9,C
1999,9,9,26.5,C
1999,9,10,26.4,#
1999,9,11,27.0,C
1999,9,12,27.5,C
1999,9,13,28.9,C
1999,9,14,28.1,C
1999,9,15,27.2,C
1999,9,16,24.3,C
1999,9,17,24.3,C
1999,9,18,26.6,C
1999,9,19,26.2,C
1999,9,20,25.3,#
1999,9,21,25.4,C
1999,9,22,23.5,C
1999,9,23,22.9,C
1999,9,24,22.2,C
1999,9,25,24.9,#
1999,9,26,23.2,C
1999,9,27,24.7,#
1999,9,28,26.3,C
1999,9,29,26.1,#
1999,9,30,25.6,#
1999,10,1,26.7,#
1999,10,2,25.2,#
1999,10,3,23.9,#
1999,10,4,24.0,#
1999,10,5,24.2,#
1999,10,6,25.0,C
1999,10,7,24.7,C
1999,10,8,24.9,#
1999,10,9,25.6,#
1999,10,10,24.7,#
1999,10,11,25.2,C
1999,10,12,26.6,C
1999,10,13,26.5,#
1999,10,14,26.8,#
1999,10,15,26.7,C
1999,10,16,24.5,#
1999,10,17,22.0,#
1999,10,18,20.1,C
1999,10,19,21.1,#
1999,10,20,22.8,#
1999,10,21,24.7,#
1999,10,22,24.6,#
1999,10,23,24.7,#
1999,10,24,22.2,#
1999,10,25,23.5,C
1999,10,26,24.0,#
1999,10,27,24.1,#
1999,10,28,24.1,#
1999,10,29,23.3,#
1999,10,30,24.6,#
1999,10,31,24.5,C
1999,11,1,20.0,#
1999,11,2,18.3,#
1999,11,3,17.4,#
1999,11,4,19.4,#
1999,11,5,22.4,#
1999,11,6,23.4,#
1999,11,7,23.8,C
1999,11,8,23.2,C
1999,11,9,21.9,C
1999,11,10,22.9,C
1999,11,11,22.6,#
1999,11,12,21.1,#
1999,11,13,21.7,#
1999,11,14,21.8,#
1999,11,15,20.3,#
1999,11,16,18.8,#
1999,11,17,17.8,#
1999,11,18,15.4,#
1999,11,19,18.8,#
1999,11,20,18.5,#
1999,11,21,19.7,#
1999,11,22,21.4,#
1999,11,23,19.8,#
1999,11,24,21.1,#
1999,11,25,19.4,#
1999,11,26,21.4,#
1999,11,27,20.9,#
1999,11,28,13.6,#
1999,11,29,12.2,#
1999,11,30,14.0,#
1999,12,1,16.9,#
1999,12,2,16.5,#
1999,12,3,15.4,#
1999,12,4,15.9,#
1999,12,5,16.6,#
1999,12,6,13.0,#
1999,12,7,14.7,#
1999,12,8,14.1,#
1999,12,9,14.5,#
1999,12,10,15.1,#
1999,12,11,15.6,#
1999,12,12,19.2,#
1999,12,13,18.0,#
1999,12,14,18.1,#
1999,12,15,17.2,#
1999,12,16,15.9,#
1999,12,17,15.2,#
1999,12,18,12.7,#
1999,12,19,12.6,#
1999,12,20,9.8,C
1999,12,21,6.8,#
1999,12,22,5.8,C
1999,12,23,4.8,#
1999,12,24,6.1,#
1999,12,25,8.3,#
1999,12,26,8.9,C
1999,12,27,14.9,#
1999,12,28,15.5,#
1999,12,29,13.6,C
1999,12,30,12.9,#
1999,12,31,13.7,#
2000,1,1,13.8,C
2000,1,2,15.2,#
2000,1,3,18.0,#
2000,1,4,17.9,#
2000,1,5,18.6,C
2000,1,6,17.4,#
2000,1,7,17.9,C
2000,1,8,16.6,#
2000,1,9,18.1,C
2000,1,10,17.2,#
2000,1,11,18.4,#
2000,1,12,19.2,#
2000,1,13,17.2,C
2000,1,14,18.1,C
2000,1,15,17.4,#
2000,1,16,17.7,#
2000,1,17,13.1,#
2000,1,18,11.2,#
2000,1,19,8.8,#
2000,1,20,10.8,#
2000,1,21,13.4,#
2000,1,22,16.8,#
2000,1,23,16.1,#
2000,1,24,17.3,#
2000,1,25,10.0,C
2000,1,26,7.6,#
2000,1,27,6.6,#
2000,1,28,8.0,#
2000,1,29,12.3,#
2000,1,30,10.3,#
2000,1,31,9.8,C
2000,2,1,7.5,#
2000,2,2,8.2,C
2000,2,3,12.3,C
2000,2,4,15.2,#
2000,2,5,14.5,#
2000,2,6,12.4,C
2000,2,7,13.0,C
2000,2,8,10.9,#
2000,2,9,13.5,C
2000,2,10,14.2,C
2000,2,11,17.2,#
2000,2,12,15.2,C
2000,2,13,17.0,C
2000,2,14,16.0,C
2000,2,15,15.0,C
2000,2,16,14.6,#
2000,2,17,15.7,C
2000,2,18,16.5,C
2000,2,19,18.4,C
2000,2,20,15.6,#
2000,2,21,12.9,C
2000,2,22,14.3,C
2000,2,23,13.4,#
2000,2,24,11.5,C
2000,2,25,10.4,C
2000,2,26,9.3,#
2000,2,27,9.9,#
2000,2,28,9.5,C
2000,2,29,10.6,C
2000,3,1,10.1,#
2000,3,2,12.2,C
2000,3,3,14.5,C
2000,3,4,15.6,C
2000,3,5,16.1,#
2000,3,6,17.5,C
2000,3,7,17.1,C
2000,3,8,16.5,C
2000,3,9,15.5,C
2000,3,10,15.9,C
2000,3,11,17.4,C
2000,3,12,16.2,C
2000,3,13,16.2,C
2000,3,14,17.3,C
2000,3,15,18.4,#
2000,3,16,17.4,C
2000,3,17,16.8,C
2000,3,18,16.3,C
2000,3,19,18.4,C
2000,3,20,19.1,C
2000,3,21,18.4,#
2000,3,22,19.5,#
2000,3,23,20.6,C
2000,3,24,19.0,#
2000,3,25,18.6,C
2000,3,26,19.2,C
2000,3,27,17.0,C
2000,3,28,17.5,#
2000,3,29,19.9,C
2000,3,30,19.1,#
2000,3,31,21.4,C
2000,4,1,23.3,#
2000,4,2,21.5,#
2000,4,3,20.9,C
2000,4,4,20.0,C
2000,4,5,20.4,#
2000,4,6,20.0,#
2000,4,7,19.5,C
2000,4,8,21.3,#
2000,4,9,20.7,#
2000,4,10,22.4,C
2000,4,11,21.3,C
2000,4,12,20.9,C
2000,4,13,22.5,C
2000,4,14,21.8,C
2000,4,15,20.8,#
2000,4,16,18.5,#
2000,4,17,20.3,C
2000,4,18,22.3,#
2000,4,19,23.6,#
2000,4,20,24.5,#
2000,4,21,24.7,#
2000,4,22,24.4,C
2000,4,23,22.6,#
2000,4,24,22.9,C
2000,4,25,24.2,#
2000,4,26,23.9,#
2000,4,27,21.8,#
2000,4,28,20.5,C
2000,4,29,22.0,C
2000,4,30,25.4,C
2000,5,1,26.2,C
2000,5,2,24.2,C
2000,5,3,20.6,C
2000,5,4,21.8,#
2000,5,5,23.0,#
2000,5,6,23.4,C
2000,5,7,24.1,C
2000,5,8,24.5,#
2000,5,9,24.2,#
2000,5,10,23.3,C
2000,5,11,23.4,C
2000,5,12,24.4,#
2000,5,13,24.8,#
2000,5,14,25.4,#
2000,5,15,26.6,#
2000,5,16,24.6,C
2000,5,17,25.4,#
2000,5,18,25.7,#
2000,5,19,21.7,#
2000,5,20,22.1,#
2000,5,21,24.5,#
2000,5,22,24.9,#
2000,5,23,25.3,#
2000,5,24,25.2,#
2000,5,25,25.0,C
2000,5,26,27.5,#
2000,5,27,27.6,#
2000,5,28,27.3,#
2000,5,29,28.0,#
2000,5,30,27.5,C
2000,5,31,27.9,#
2000,6,1,28.4,#
2000,6,2,28.6,#
2000,6,3,27.7,C
2000,6,4,26.5,C
2000,6,5,28.6,#
2000,6,6,29.3,C
2000,6,7,29.0,C
2000,6,8,27.8,C
2000,6,9,26.4,C
2000,6,10,27.9,#
2000,6,11,29.1,#
2000,6,12,22.8,#
2000,6,13,22.0,C
2000,6,14,22.9,C
2000,6,15,25.1,#
2000,6,16,23.8,C
2000,6,17,25.2,#
2000,6,18,25.1,#
2000,6,19,25.0,C
2000,6,20,25.2,C
2000,6,21,27.6,#
2000,6,22,26.9,C
2000,6,23,27.9,C
2000,6,24,28.4,#
2000,6,25,26.3,#
2000,6,26,27.5,C
2000,6,27,28.4,#
2000,6,28,26.9,#
2000,6,29,26.5,C
2000,6,30,26.8,#
2000,7,1,27.1,#
2000,7,2,27.6,C
2000,7,3,25.0,C
2000,7,4,27.0,#
2000,7,5,28.6,C
2000,7,6,27.0,C
2000,7,7,26.6,C
2000,7,8,27.5,C
2000,7,9,27.3,C
2000,7,10,27.0,#
2000,7,11,27.2,C
2000,7,12,27.7,C
2000,7,13,28.0,C
2000,7,14,28.3,C
2000,7,15,27.5,C
2000,7,16,25.9,#
2000,7,17,25.5,C
2000,7,18,25.3,#
2000,7,19,25.2,C
2000,7,20,24.9,#
2000,7,21,26.3,#
2000,7,22,26.7,#
2000,7,23,25.4,#
2000,7,24,27.1,C
2000,7,25,28.2,C
2000,7,26,28.9,#
2000,7,27,29.2,C
2000,7,28,29.2,#
2000,7,29,29.1,C
2000,7,30,29.2,C
2000,7,31,28.1,C
2000,8,1,25.8,C
2000,8,2,24.7,C
2000,8,3,24.7,C
2000,8,4,25.3,C
2000,8,5,25.6,C
2000,8,6,25.4,C
2000,8,7,26.1,#
2000,8,8,26.1,C
2000,8,9,26.3,C
2000,8,10,27.4,C
2000,8,11,28.9,C
2000,8,12,29.0,C
2000,8,13,29.3,C
2000,8,14,29.4,C
2000,8,15,27.7,C
2000,8,16,27.9,C
2000,8,17,28.6,#
2000,8,18,28.0,C
2000,8,19,26.8,C
2000,8,20,27.4,C
2000,8,21,28.5,#
2000,8,22,28.5,C
2000,8,23,25.1,C
2000,8,24,27.6,C
2000,8,25,28.0,C
2000,8,26,25.7,C
2000,8,27,25.4,C
2000,8,28,26.7,C
2000,8,29,26.0,C
2000,8,30,26.1,C
2000,8,31,26.5,C
2000,9,1,25.4,C
2000,9,2,25.9,C
2000,9,3,27.3,C
2000,9,4,26.1,C
2000,9,5,26.7,C
2000,9,6,26.9,C
2000,9,7,26.3,C
2000,9,8,26.6,C
2000,9,9,25.3,C
2000,9,10,23.8,C
2000,9,11,23.9,C
2000,9,12,25.4,#
2000,9,13,25.0,C
2000,9,14,24.6,C
2000,9,15,25.0,C
2000,9,16,24.7,#
2000,9,17,24.1,C
2000,9,18,26.2,C
2000,9,19,26.4,C
2000,9,20,24.3,C
2000,9,21,26.8,C
2000,9,22,26.1,#
2000,9,23,26.7,C
2000,9,24,25.1,C
2000,9,25,25.4,C
2000,9,26,26.9,C
2000,9,27,27.0,C
2000,9,28,27.3,C
2000,9,29,26.9,C
2000,9,30,26.1,C
2000,10,1,25.6,C
2000,10,2,25.7,#
2000,10,3,26.0,C
2000,10,4,26.1,C
2000,10,5,27.0,C
2000,10,6,26.6,C
2000,10,7,26.1,C
2000,10,8,25.8,C
2000,10,9,27.1,C
2000,10,10,26.7,C
2000,10,11,28.1,C
2000,10,12,25.8,C
2000,10,13,20.5,C
2000,10,14,19.7,C
2000,10,15,20.2,C
2000,10,16,21.2,C
2000,10,17,21.5,C
2000,10,18,24.0,C
2000,10,19,22.2,C
2000,10,20,23.9,C
2000,10,21,24.6,C
2000,10,22,25.7,C
2000,10,23,26.6,C
2000,10,24,24.5,C
2000,10,25,26.9,C
2000,10,26,26.3,C
2000,10,27,25.2,C
2000,10,28,24.6,C
2000,10,29,20.3,C
2000,10,30,18.8,C
2000,10,31,18.6,C
2000,11,1,18.8,#
2000,11,2,16.6,C
2000,11,3,16.3,C
2000,11,4,21.1,#
2000,11,5,20.1,C
2000,11,6,21.1,C
2000,11,7,22.1,C
2000,11,8,23.9,#
2000,11,9,22.4,C
2000,11,10,22.0,C
2000,11,11,16.6,C
2000,11,12,13.8,#
2000,11,13,13.2,C
2000,11,14,18.9,C
2000,11,15,21.2,C
2000,11,16,17.7,C
2000,11,17,17.2,C
2000,11,18,16.7,#
2000,11,19,19.0,C
2000,11,20,14.4,#
2000,11,21,13.5,C
2000,11,22,13.4,C
2000,11,23,15.6,C
2000,11,24,20.5,C
2000,11,25,20.8,C
2000,11,26,21.4,C
2000,11,27,21.2,C
2000,11,28,21.4,#
2000,11,29,20.2,C
2000,11,30,20.2,#
2000,12,1,19.4,#
2000,12,2,19.2,C
2000,12,3,16.5,C
2000,12,4,15.2,C
2000,12,5,16.1,C
2000,12,6,18.3,#
2000,12,7,18.9,C
2000,12,8,19.6,C
2000,12,9,19.1,C
2000,12,10,18.9,C
2000,12,11,18.4,C
2000,12,12,13.1,C
2000,12,13,10.6,C
2000,12,14,11.9,C
2000,12,15,14.0,C
2000,12,16,17.6,C
2000,12,17,19.8,C
2000,12,18,18.7,C
2000,12,19,20.1,C
2000,12,20,17.1,C
2000,12,21,12.1,C
2000,12,22,11.5,C
2000,12,23,11.8,C
2000,12,24,13.2,C
2000,12,25,14.2,C
2000,12,26,16.7,C
2000,12,27,18.7,C
2000,12,28,17.1,C
2000,12,29,16.6,#
2000,12,30,15.1,C
2000,12,31,13.2,#
2001,1,1,11.9,C
2001,1,2,14.9,C
2001,1,3,17.4,C
2001,1,4,18.2,C
2001,1,5,17.7,C
2001,1,6,18.5,C
2001,1,7,16.5,C
2001,1,8,16.9,C
2001,1,9,13.7,#
2001,1,10,11.4,C
2001,1,11,13.2,C
2001,1,12,16.7,C
2001,1,13,14.4,#
2001,1,14,13.2,#
2001,1,15,11.9,#
2001,1,16,13.0,C
2001,1,17,14.7,C
2001,1,18,16.2,C
2001,1,19,18.6,C
2001,1,20,16.3,C
2001,1,21,18.6,C
2001,1,22,19.1,C
2001,1,23,18.7,C
2001,1,24,18.3,#
2001,1,25,13.9,C
2001,1,26,10.7,C
2001,1,27,9.8,C
2001,1,28,9.5,C
2001,1,29,12.0,C
2001,1,30,14.7,C
2001,1,31,15.6,C
2001,2,1,13.5,C
2001,2,2,10.9,C
2001,2,3,12.3,C
2001,2,4,13.2,C
2001,2,5,14.9,C
2001,2,6,16.4,C
2001,2,7,16.2,C
2001,2,8,13.8,C
2001,2,9,13.4,C
2001,2,10,12.4,C
2001,2,11,14.0,C
2001,2,12,16.1,C
2001,2,13,14.1,C
2001,2,14,9.9,#
2001,2,15,11.2,C
2001,2,16,14.8,C
2001,2,17,15.2,C
2001,2,18,16.4,#
2001,2,19,15.6,C
2001,2,20,18.3,C
2001,2,21,19.2,C
2001,2,22,17.9,C
2001,2,23,17.5,C
2001,2,24,19.0,C
2001,2,25,12.1,C
2001,2,26,11.6,C
2001,2,27,16.7,C
2001,2,28,16.5,C
2001,3,1,13.5,C
2001,3,2,16.4,C
2001,3,3,18.3,C
2001,3,4,17.0,C
2001,3,5,17.3,C
2001,3,6,19.6,C
2001,3,7,18.7,C
2001,3,8,14.4,C
2001,3,9,14.5,C
2001,3,10,17.5,C
2001,3,11,16.4,C
2001,3,12,15.8,C
2001,3,13,17.0,C
2001,3,14,19.2,C
2001,3,15,20.2,C
2001,3,16,22.0,C
2001,3,17,21.5,C
2001,3,18,20.4,C
2001,3,19,19.9,C
2001,3,20,21.6,C
2001,3,21,19.7,C
2001,3,22,20.5,C
2001,3,23,23.1,C
2001,3,24,24.6,C
2001,3,25,20.7,C
2001,3,26,18.6,C
2001,3,27,19.5,C
2001,3,28,19.3,C
2001,3,29,17.1,C
2001,3,30,18.3,C
2001,3,31,20.5,C
2001,4,1,20.3,C
2001,4,2,20.7,C
2001,4,3,21.8,C
2001,4,4,19.3,C
2001,4,5,18.9,C
2001,4,6,20.2,C
2001,4,7,20.2,C
2001,4,8,22.9,C
2001,4,9,22.3,C
2001,4,10,21.9,C